DW6366 Weather Reports


time (UTC)temp
C
wind
direction
speed
KPH
gust
KPH
rain 1hr
cm
rain 24hr
cm
rain mn
cm
humidity
%
barometer
mb
20260507084355 15 12 3.2 11.3 0.00 0.00 0.00 66 1016.1
20260507083339 15 344 3.2 6.4 0.00 0.00 0.00 67 1016.1
20260507082332 14 32 1.6 6.4 0.00 0.00 0.00 68 1016.2
20260507081320 14 84 1.6 4.8 0.00 0.00 0.00 70 1016.2
20260507080321 13 348 0.0 9.7 0.00 0.00 0.00 72 1016.1
20260507075332 13 11 1.6 4.8 0.00 0.00 0.00 74 1016.0
20260507074338 12 17 1.6 4.8 0.00 0.00 0.00 74 1015.9
20260507073411 12 3 0.0 4.8 0.00 0.00 0.00 76 1015.9
20260507072319 11 40 1.6 8.0 0.00 0.00 0.00 78 1015.9
20260507071414 11 355 1.6 8.0 0.00 0.00 0.00 81 1015.9
20260507070354 11 348 1.6 6.4 0.00 0.00 0.00 82 1015.9
20260507065345 10 302 3.2 9.7 0.00 0.00 0.00 84 1016.0
20260507064321 10 325 3.2 8.0 0.00 0.00 0.00 85 1015.9
20260507063355 9 42 1.6 4.8 0.00 0.00 0.00 87 1015.8
20260507062334 8 208 1.6 8.0 0.00 0.00 0.00 87 1015.8
20260507061341 8 22 1.6 9.7 0.00 0.00 0.00 88 1015.8
20260507060346 8 1 1.6 8.0 0.00 0.00 0.00 89 1015.8
20260507055351 8 208 1.6 8.0 0.00 0.00 0.00 89 1015.6
20260507054333 7 360 1.6 8.0 0.00 0.00 0.00 89 1015.5
20260507053401 7 355 1.6 6.4 0.00 0.00 0.00 90 1015.5
20260507052320 7 7 1.6 8.0 0.00 0.00 0.00 90 1015.4
20260507051322 7 22 1.6 4.8 0.00 0.00 0.00 90 1015.3
20260507050406 7 15 1.6 3.2 0.00 0.00 0.00 89 1015.2
20260507045351 7 9 0.0 3.2 0.00 0.00 0.00 89 1015.1
20260507044337 7 3 1.6 3.2 0.00 0.00 0.00 89 1015.0
20260507043326 7 9 1.6 3.2 0.00 0.00 0.00 89 1015.0
20260507042355 7 357 0.0 0.0 0.00 0.00 0.00 89 1014.9
20260507041325 7 9 0.0 0.0 0.00 0.00 0.00 89 1014.9
20260507040330 7 9 1.6 3.2 0.00 0.00 0.00 89 1014.7
20260507035324 7 5 0.0 3.2 0.00 0.00 0.00 89 1014.7
20260507034329 7 358 0.0 4.8 0.00 0.00 0.00 89 1014.6
20260507033324 7 14 1.6 4.8 0.00 0.00 0.00 89 1014.6
20260507032323 7 6 0.0 3.2 0.00 0.00 0.00 88 1014.6
20260507031350 7 9 0.0 1.6 0.00 0.00 0.00 88 1014.5
20260507030342 7 15 0.0 3.2 0.00 0.00 0.00 88 1014.4
20260507025351 7 17 0.0 3.2 0.00 0.00 0.00 88 1014.4
20260507024351 7 7 0.0 3.2 0.00 0.00 0.00 88 1014.3
20260507023317 7 348 1.6 4.8 0.00 0.00 0.00 88 1014.3
20260507022351 8 360 1.6 8.0 0.00 0.00 0.00 87 1014.3
20260507021335 8 351 0.0 4.8 0.00 0.00 0.00 87 1014.2
20260507020321 8 350 0.0 4.8 0.00 0.00 0.00 87 1014.2
20260507015412 8 2 1.6 4.8 0.00 0.00 0.00 86 1014.0
20260507014400 8 11 0.0 8.0 0.00 0.00 0.00 86 1014.0
20260507013333 8 5 0.0 4.8 0.00 0.00 0.00 85 1014.0
20260507012356 8 28 0.0 3.2 0.00 0.00 0.00 85 1014.0
20260507011331 8 34 0.0 6.4 0.00 0.00 0.00 85 1013.9
20260507010329 8 28 0.0 8.0 0.00 0.00 0.00 84 1013.9
20260507005358 9 311 1.6 4.8 0.00 0.00 0.00 84 1013.8
20260507004324 9 5 1.6 6.4 0.00 0.00 0.00 83 1013.9
20260507003330 9 5 1.6 4.8 0.00 0.00 0.00 83 1013.8
20260507002327 10 10 1.6 4.8 0.00 0.00 0.00 82 1013.7
20260507001337 10 30 1.6 8.0 0.00 0.00 0.00 82 1013.6
20260507000328 10 344 3.2 9.7 0.00 0.00 0.00 81 1013.6
20260506235339 10 40 3.2 11.3 0.00 0.00 0.00 80 1013.6
20260506234336 10 42 1.6 6.4 0.00 0.00 0.00 79 1013.5
20260506233322 10 5 1.6 6.4 0.00 0.00 0.00 78 1013.4
20260506232341 10 25 1.6 8.0 0.00 0.00 0.00 77 1013.3
20260506231347 11 331 3.2 8.0 0.00 0.00 0.00 76 1013.2
20260506230323 11 9 3.2 11.3 0.00 0.00 0.00 75 1013.2
20260506225350 11 33 3.2 12.9 0.00 0.00 0.00 74 1013.2
20260506224333 11 356 3.2 11.3 0.00 0.00 0.00 74 1013.2
20260506223328 11 357 3.2 11.3 0.00 0.00 0.00 73 1013.1
20260506222323 11 8 3.2 11.3 0.00 0.00 0.00 73 1013.1
20260506221406 11 2 1.6 11.3 0.00 0.00 0.00 72 1013.1
20260506220352 11 23 3.2 9.7 0.00 0.00 0.00 71 1013.0
20260506215339 11 33 3.2 9.7 0.00 0.00 0.00 71 1013.0
20260506214334 11 75 4.8 12.9 0.00 0.00 0.00 71 1012.8
20260506213338 12 360 3.2 8.0 0.00 0.00 0.00 72 1012.9
20260506212329 12 18 3.2 11.3 0.00 0.00 0.00 73 1012.8
20260506211338 12 30 0.0 8.0 0.00 0.00 0.00 73 1012.7
20260506210343 12 356 1.6 3.2 0.00 0.00 0.00 73 1012.6
20260506205333 12 11 1.6 8.0 0.00 0.00 0.00 72 1012.6
20260506204328 12 6 1.6 8.0 0.00 0.00 0.00 71 1012.5
20260506203336 12 46 1.6 6.4 0.00 0.00 0.00 70 1012.5
20260506202321 12 9 0.0 3.2 0.00 0.00 0.00 70 1012.4
20260506201336 12 15 0.0 0.0 0.00 0.00 0.00 70 1012.3
20260506200342 12 14 0.0 4.8 0.00 0.00 0.00 69 1012.3
20260506195333 12 71 0.0 3.2 0.00 0.00 0.00 69 1012.2
20260506194344 12 65 1.6 9.7 0.00 0.00 0.00 68 1012.2
20260506193338 12 4 0.0 3.2 0.00 0.00 0.00 68 1012.0
20260506192332 12 55 0.0 3.2 0.00 0.00 0.00 67 1012.0
20260506191341 12 88 0.0 4.8 0.00 0.00 0.00 67 1011.8
20260506190332 12 70 1.6 3.2 0.00 0.00 0.00 66 1011.7
20260506185331 13 70 0.0 3.2 0.00 0.00 0.00 66 1011.5
20260506184334 13 70 1.6 4.8 0.00 0.00 0.00 65 1011.4
20260506183341 13 76 3.2 4.8 0.00 0.00 0.00 65 1011.3
20260506182348 13 73 1.6 4.8 0.00 0.00 0.00 64 1011.1
20260506181330 13 208 4.8 6.4 0.00 0.00 0.00 63 1011.0
20260506180330 13 70 3.2 8.0 0.00 0.00 0.00 63 1010.9
20260506175341 13 208 4.8 6.4 0.00 0.00 0.00 62 1010.8
20260506174348 13 208 4.8 8.0 0.00 0.00 0.00 62 1010.7
20260506173342 13 208 4.8 14.5 0.00 0.00 0.00 61 1010.6
20260506172324 13 208 8.0 14.5 0.00 0.00 0.00 59 1010.5
20260506171338 13 208 8.0 17.7 0.00 0.00 0.00 60 1010.4
20260506170331 13 87 4.8 16.1 0.00 0.00 0.00 60 1010.4
20260506165323 13 138 11.3 16.1 0.00 0.00 0.00 60 1010.3
20260506164322 13 108 11.3 24.1 0.00 0.00 0.00 60 1010.3
20260506163348 13 59 4.8 19.3 0.00 0.00 0.00 60 1010.3
20260506162402 13 234 9.7 19.3 0.00 0.00 0.00 59 1010.3
20260506161318 13 77 0.0 9.7 0.00 0.00 0.00 61 1010.3
20260506160322 13 60 6.4 16.1 0.00 0.00 0.00 61 1010.3
20260506155333 13 208 12.9 20.9 0.00 0.00 0.00 61 1010.3
20260506154323 13 339 1.6 19.3 0.00 0.00 0.00 60 1010.3
20260506153355 13 208 9.7 17.7 0.00 0.00 0.00 60 1010.3
20260506152324 14 81 9.7 24.1 0.00 0.00 0.00 60 1010.3
20260506151334 13 94 8.0 22.5 0.00 0.00 0.00 59 1010.3
20260506150330 14 82 11.3 20.9 0.00 0.00 0.00 59 1010.3
20260506145340 14 99 9.7 19.3 0.00 0.00 0.00 58 1010.2
20260506144334 15 102 8.0 17.7 0.00 0.00 0.00 53 1010.1
20260506143347 15 98 3.2 14.5 0.00 0.00 0.00 52 1010.1
20260506142348 15 46 6.4 19.3 0.00 0.00 0.00 55 1010.1
20260506141324 15 334 3.2 25.7 0.00 0.00 0.00 54 1010.0
20260506140335 15 57 14.5 27.4 0.00 0.00 0.00 56 1010.0
20260506135330 15 90 4.8 12.9 0.00 0.00 0.00 55 1010.0
20260506134321 15 73 4.8 19.3 0.00 0.00 0.00 59 1009.8
20260506133336 15 312 3.2 14.5 0.00 0.00 0.00 57 1009.9
20260506132331 15 28 4.8 11.3 0.00 0.00 0.00 59 1009.8
20260506131339 15 256 3.2 12.9 0.00 0.00 0.00 59 1009.7
20260506130348 16 20 3.2 14.5 0.00 0.00 0.00 57 1009.7
20260506125338 16 77 3.2 24.1 0.00 0.00 0.00 58 1009.6
20260506124349 16 13 3.2 16.1 0.00 0.00 0.00 59 1009.7
20260506123338 16 337 3.2 17.7 0.00 0.00 0.00 59 1009.5
20260506122336 16 208 12.9 22.5 0.00 0.00 0.00 59 1009.5
20260506121323 16 349 3.2 17.7 0.00 0.00 0.00 60 1009.5
20260506120325 15 18 3.2 9.7 0.00 0.00 0.00 61 1009.4
20260506115321 14 65 4.8 16.1 0.00 0.00 0.00 61 1009.4
20260506114339 14 58 3.2 14.5 0.00 0.00 0.00 66 1009.5
20260506113338 14 97 3.2 12.9 0.00 0.00 0.00 64 1009.5
20260506112320 14 323 3.2 9.7 0.00 0.00 0.00 64 1009.5
20260506111346 15 69 4.8 16.1 0.00 0.00 0.00 64 1009.4
20260506110322 15 349 4.8 17.7 0.00 0.00 0.00 59 1009.4
20260506105335 15 296 3.2 8.0 0.00 0.00 0.00 65 1009.4
20260506104328 16 23 6.4 12.9 0.00 0.00 0.00 62 1009.4
20260506103334 15 10 4.8 14.5 0.00 0.00 0.00 61 1009.4
20260506102331 15 5 4.8 12.9 0.00 0.00 0.00 61 1009.2
20260506101321 15 68 3.2 12.9 0.00 0.00 0.00 64 1009.3
20260506100334 15 23 3.2 8.0 0.00 0.00 0.00 68 1009.2
20260506095334 13 344 3.2 12.9 0.00 0.00 0.00 68 1009.2
20260506094327 13 334 1.6 9.7 0.00 0.00 0.00 68 1009.2
20260506093347 13 338 3.2 12.9 0.00 0.00 0.00 71 1009.2
20260506092325 13 16 3.2 9.7 0.00 0.00 0.00 72 1009.1
20260506091326 13 21 3.2 8.0 0.00 0.00 0.00 73 1009.1
20260506090333 13 348 3.2 14.5 0.00 0.00 0.00 74 1009.0
20260506085327 13 304 4.8 14.5 0.00 0.00 0.00 75 1009.1